Voltar ao catálogo

FENGYUN 1C DEB

AtivoSSO
NORAD 30005·DEBRIS·🇨🇳 China

Lançado May 10, 1999 de Taiyuan Satellite Launch Center

Loading…

Próximas Passagens (próximas 24 horas)

TLE

AtualizadoSource: Space-Track

Época: Sep 14, 2026, 07:56 UTC

1 30005U 99025ME  26257.33058296  .00000885  00000-0  95120-3 0  9992
2 30005  99.3252 208.2017 0345410 115.9234 247.7928 13.52857993966723

Acompanhe FENGYUN 1C DEB em tempo real com AllMySat

Download on the App Store